{"data":{"norad_id":69472,"epoch":"2026-09-19T11:18:16.640352Z","epoch_age_seconds":122306,"freshness":"FRESH","line1":"1 69472U 26128A   26262.47102593  .00014184  00000+0  24094-3 0  9995","line2":"2 69472  54.9907 229.3613 0014159 146.4788 213.7145 15.51694814 15900","mean_motion":15.51694814,"eccentricity":0.0014159,"inclination_deg":54.9907,"raan_deg":229.3613,"arg_perigee_deg":146.4788,"mean_anomaly_deg":213.7145,"bstar":0.00024094,"rev_number":1590,"period_min":92.801753734546,"perigee_km":402.16360743613,"apogee_km":421.391287168,"semimajor_km":6789.9144473021,"source":"CELESTRAK","updated_at":"2026-09-20T09:00:24.905852Z"}}